K7AEL Weather Reports


time (UTC)temp
F
wind
direction
speed
knots
gust
knots
rain 1hr
in
rain 24hr
in
rain mn
in
humidity
%
barometer
mb
20260506124725 53 192 0.0 0.0 0.00 0.00 0.00 75 1016.8
20260506124223 53 194 0.0 0.0 0.00 0.00 0.00 74 1016.7
20260506123720 53 198 0.0 0.0 0.00 0.00 0.00 74 1016.7
20260506123219 53 182 0.0 0.0 0.00 0.00 0.00 74 1016.6
20260506122715 53 185 0.0 0.0 0.00 0.00 0.00 74 1016.5
20260506122213 53 191 0.0 0.0 0.00 0.00 0.00 74 1016.6
20260506121711 53 192 0.0 0.0 0.00 0.00 0.00 73 1016.6
20260506121207 53 202 0.0 0.0 0.00 0.00 0.00 72 1016.5
20260506120705 54 201 0.0 0.0 0.00 0.00 0.00 70 1016.5
20260506120202 54 201 0.0 0.0 0.00 0.00 0.00 69 1016.3
20260506115700 54 232 0.0 0.0 0.00 0.00 0.00 69 1016.1
20260506115158 55 271 0.0 0.9 0.00 0.00 0.00 69 1016.3
20260506114655 55 252 0.9 0.9 0.00 0.00 0.00 69 1016.3
20260506114153 55 224 0.0 0.9 0.00 0.00 0.00 68 1016.3
20260506113651 55 274 0.9 1.7 0.00 0.00 0.00 68 1016.1
20260506113148 55 262 1.7 2.6 0.00 0.00 0.00 68 1016.3
20260506112644 55 290 0.9 1.7 0.00 0.00 0.00 68 1016.1
20260506112142 55 228 0.9 1.7 0.00 0.00 0.00 67 1016.0
20260506111639 55 300 1.7 2.6 0.00 0.00 0.00 67 1016.0
20260506111137 55 238 0.9 0.9 0.00 0.00 0.00 67 1015.9
20260506110634 56 228 0.0 0.9 0.00 0.00 0.00 66 1016.0
20260506110131 56 321 0.9 1.7 0.00 0.00 0.00 65 1016.0
20260506105628 56 290 0.9 1.7 0.00 0.00 0.00 65 1015.9
20260506105125 57 347 1.7 2.6 0.00 0.00 0.00 64 1016.0
20260506104623 57 311 0.9 1.7 0.00 0.00 0.00 64 1015.9
20260506104120 57 274 1.7 1.7 0.00 0.00 0.00 64 1015.8
20260506103617 56 288 1.7 2.6 0.00 0.00 0.00 64 1015.8
20260506103114 56 350 0.9 1.7 0.00 0.00 0.00 64 1015.8
20260506102613 56 294 0.9 0.9 0.00 0.00 0.00 64 1015.7
20260506102109 56 324 0.9 1.7 0.00 0.00 0.00 63 1015.9
20260506101606 56 262 0.9 1.7 0.00 0.00 0.00 63 1015.7
20260506101103 56 274 0.0 2.6 0.00 0.00 0.00 62 1015.8
20260506100602 55 239 0.0 0.9 0.00 0.00 0.00 61 1015.6
20260506100059 55 219 0.0 0.0 0.00 0.00 0.00 61 1015.6
20260506095558 56 207 0.0 0.0 0.00 0.00 0.00 60 1015.7
20260506095054 56 206 0.0 0.0 0.00 0.00 0.00 59 1015.4
20260506094552 56 206 0.0 0.0 0.00 0.00 0.00 58 1015.4
20260506094049 56 216 0.0 0.0 0.00 0.00 0.00 57 1015.5
20260506093547 56 188 0.0 0.9 0.00 0.00 0.00 56 1015.6
20260506093044 56 198 0.0 0.0 0.00 0.00 0.00 57 1015.6
20260506092542 56 208 0.0 0.0 0.00 0.00 0.00 58 1015.4
20260506092039 56 203 0.0 0.0 0.00 0.00 0.00 57 1015.5
20260506091537 56 198 0.0 0.0 0.00 0.00 0.00 57 1015.4
20260506091034 56 188 0.0 0.0 0.00 0.00 0.00 57 1015.4
20260506090532 56 199 0.0 0.0 0.00 0.00 0.00 57 1015.4
20260506090028 56 202 0.0 0.0 0.00 0.00 0.00 58 1015.4
20260506085525 57 194 0.0 0.0 0.00 0.00 0.00 55 1015.4
20260506085021 57 199 0.0 0.0 0.00 0.00 0.00 54 1015.5
20260506084518 57 209 0.0 0.0 0.00 0.00 0.00 53 1015.5
20260506084014 57 205 0.0 0.0 0.00 0.00 0.00 54 1015.6
20260506083512 57 203 0.0 0.0 0.00 0.00 0.00 54 1015.6
20260506083009 57 204 0.0 0.0 0.00 0.00 0.00 53 1015.5
20260506082506 58 209 0.0 0.0 0.00 0.00 0.00 52 1015.7
20260506082001 58 215 0.0 0.0 0.00 0.00 0.00 51 1015.5
20260506081500 58 219 0.0 0.0 0.00 0.00 0.00 51 1015.5
20260506080957 59 211 0.0 0.0 0.00 0.00 0.00 49 1015.6
20260506080454 59 218 0.0 0.0 0.00 0.00 0.00 48 1015.8
20260506073438 59 210 0.0 0.0 0.00 0.00 0.00 50 1015.6
20260506072935 59 210 0.0 0.0 0.00 0.00 0.00 50 1015.7
20260506072432 60 227 0.0 0.9 0.00 0.00 0.00 48 1015.6
20260506071930 60 242 0.9 0.9 0.00 0.00 0.00 48 1015.7
20260506071427 60 275 0.9 0.9 0.00 0.00 0.00 47 1015.6
20260506070924 60 272 0.0 0.0 0.00 0.00 0.00 47 1015.5
20260506070421 60 236 0.0 0.0 0.00 0.00 0.00 47 1015.6
20260506062359 62 205 0.0 0.9 0.00 0.18 0.18 43 1015.4
20260506061854 63 215 0.0 0.9 0.00 0.18 0.18 43 1015.3
20260506061351 63 206 0.0 0.9 0.00 0.18 0.18 42 1015.2
20260506060849 63 197 0.0 0.0 0.00 0.18 0.18 42 1015.3
20260506060347 64 207 0.0 0.9 0.00 0.18 0.18 41 1015.3
20260506051319 66 263 1.7 1.7 0.00 0.18 0.18 40 1015.0
20260506050817 66 0 2.6 5.2 0.00 0.18 0.18 38 1015.1
20260506050314 66 312 1.7 3.5 0.00 0.18 0.18 38 1014.9
20260506044804 66 305 2.6 3.5 0.00 0.18 0.18 39 1014.7
20260506044302 66 249 0.9 2.6 0.00 0.18 0.18 40 1014.8
20260506043759 66 236 1.7 2.6 0.00 0.18 0.18 40 1014.5
20260506043256 66 234 0.9 0.9 0.00 0.18 0.18 40 1014.7
20260506042755 66 236 0.9 1.7 0.00 0.18 0.18 40 1014.5
20260506042254 67 198 0.0 0.9 0.00 0.18 0.18 39 1014.5
20260506041751 67 225 0.9 2.6 0.00 0.18 0.18 39 1014.4
20260506041248 67 231 0.9 1.7 0.00 0.18 0.18 39 1014.2
20260506040745 67 235 0.9 1.7 0.00 0.18 0.18 39 1014.1
20260506040242 67 256 2.6 5.2 0.00 0.18 0.18 39 1014.1
20260506035739 68 246 1.7 3.5 0.00 0.18 0.18 39 1014.1
20260506035235 68 306 1.7 2.6 0.00 0.18 0.18 38 1013.9
20260506034727 68 219 0.9 6.1 0.00 0.18 0.18 37 1013.8
20260506034224 68 315 3.5 6.1 0.00 0.18 0.18 37 1013.6
20260506033722 68 259 1.7 1.7 0.00 0.18 0.18 41 1013.6
20260506033219 68 190 0.0 2.6 0.00 0.18 0.18 41 1013.5
20260506032715 68 208 1.7 3.5 0.00 0.18 0.18 41 1013.6
20260506032212 68 246 1.7 5.2 0.00 0.18 0.18 42 1013.4
20260506031709 68 283 1.7 5.2 0.00 0.18 0.18 41 1013.2
20260506031206 68 217 1.7 2.6 0.00 0.18 0.18 40 1013.3
20260506030705 69 200 0.0 1.7 0.00 0.18 0.18 38 1012.8
20260506030202 68 302 2.6 5.2 0.00 0.18 0.18 37 1012.9
20260506025658 68 277 1.7 2.6 0.00 0.18 0.18 37 1012.8
20260506025154 68 194 0.0 0.9 0.00 0.18 0.18 37 1012.8
20260506024652 68 203 0.0 2.6 0.00 0.18 0.18 37 1012.8
20260506024148 69 198 0.9 1.7 0.00 0.18 0.18 37 1012.6
20260506023644 69 185 1.7 2.6 0.00 0.18 0.18 37 1012.6
20260506023142 69 242 0.9 3.5 0.00 0.18 0.18 36 1012.4
20260506022639 69 303 1.7 3.5 0.00 0.18 0.18 36 1012.5
20260506022136 69 203 1.7 2.6 0.00 0.18 0.18 36 1012.3
20260506021634 69 231 0.9 3.5 0.00 0.18 0.18 36 1012.3
20260506021131 70 191 0.0 5.2 0.00 0.18 0.18 36 1012.1
20260506020628 70 251 2.6 3.5 0.00 0.18 0.18 35 1011.9
20260506020126 70 222 1.7 7.0 0.00 0.18 0.18 35 1012.0
20260506015623 70 181 1.7 6.1 0.00 0.18 0.18 34 1011.9
20260506015120 71 290 1.7 5.2 0.00 0.18 0.18 33 1012.0
20260506014618 71 240 4.3 5.2 0.00 0.18 0.18 32 1011.9
20260506014112 71 239 2.6 7.0 0.00 0.18 0.18 31 1012.0
20260506013611 71 159 2.6 3.5 0.00 0.18 0.18 30 1011.8
20260506013108 72 179 1.7 7.8 0.00 0.18 0.18 30 1011.8
20260506012604 73 192 2.6 6.1 0.00 0.18 0.18 29 1011.8
20260506012100 73 304 3.5 7.0 0.00 0.18 0.18 29 1011.9
20260506011559 73 286 4.3 7.8 0.00 0.18 0.18 29 1011.6
20260506011054 73 159 4.3 9.6 0.00 0.18 0.18 29 1011.6
20260506010548 73 232 3.5 6.1 0.00 0.18 0.18 29 1011.7
20260506010044 73 214 1.7 9.6 0.00 0.18 0.18 30 1011.7
20260506005542 73 285 2.6 13.0 0.00 0.18 0.18 30 1011.7
20260506005037 74 176 3.5 8.7 0.00 0.18 0.18 30 1011.4
20260506004535 75 208 1.7 9.6 0.00 0.18 0.18 30 1011.4
20260506004032 75 169 2.6 8.7 0.00 0.18 0.18 30 1011.4
20260506003528 75 223 0.9 7.0 0.00 0.18 0.18 30 1011.3
20260506003024 75 176 2.6 7.8 0.00 0.18 0.18 30 1011.2
20260506002520 75 280 2.6 8.7 0.00 0.18 0.18 29 1011.2
20260506002016 76 195 4.3 8.7 0.00 0.18 0.18 29 1011.2
20260506001513 76 235 2.6 6.1 0.00 0.18 0.18 28 1011.3
20260506001010 76 190 3.5 7.0 0.00 0.18 0.18 27 1011.0
20260506000508 77 309 7.0 13.0 0.00 0.18 0.18 27 1011.0
20260506000005 77 298 2.6 6.1 0.00 0.18 0.18 28 1010.9
20260505235503 77 282 2.6 7.8 0.00 0.18 0.18 28 1010.9
20260505234959 76 221 1.7 13.9 0.00 0.18 0.18 27 1011.0
20260505234456 77 193 6.1 8.7 0.00 0.18 0.18 27 1011.0
20260505233953 77 262 0.9 8.7 0.00 0.18 0.18 27 1010.9
20260505233451 78 183 2.6 7.0 0.00 0.18 0.18 27 1010.8
20260505232948 78 216 1.7 7.0 0.00 0.18 0.18 26 1010.7
20260505232446 79 284 6.1 11.3 0.00 0.18 0.18 26 1010.9
20260505231943 78 194 3.5 7.8 0.00 0.18 0.18 25 1010.9
20260505231440 78 291 3.5 8.7 0.00 0.18 0.18 27 1010.6
20260505230938 78 177 3.5 8.7 0.00 0.18 0.18 27 1010.9
20260505230436 78 178 3.5 7.8 0.00 0.18 0.18 28 1010.9
20260505225932 78 269 7.8 9.6 0.00 0.18 0.18 29 1010.8
20260505225429 77 219 4.3 8.7 0.00 0.18 0.18 29 1010.8
20260505224925 78 343 6.1 7.8 0.00 0.18 0.18 29 1010.8
20260505224422 79 238 1.7 6.1 0.00 0.18 0.18 28 1010.9
20260505223919 78 268 2.6 8.7 0.00 0.18 0.18 29 1011.0
20260505223416 76 274 3.5 5.2 0.00 0.18 0.18 29 1011.0
20260505222912 76 210 5.2 14.8 0.00 0.18 0.18 30 1011.2
20260505222408 76 267 4.3 13.9 0.00 0.18 0.18 29 1011.1
20260505221905 76 271 3.5 6.1 0.00 0.18 0.18 31 1011.3
20260505221402 77 195 2.6 13.0 0.00 0.18 0.18 31 1011.3
20260505220859 77 187 0.9 6.1 0.00 0.18 0.18 30 1011.2
20260505220356 77 187 1.7 7.0 0.00 0.18 0.18 30 1011.3
20260505215853 76 201 2.6 5.2 0.00 0.18 0.18 31 1011.4
20260505215351 77 172 4.3 7.0 0.00 0.18 0.18 31 1011.4
20260505214849 77 219 2.6 7.0 0.00 0.18 0.18 30 1011.7
20260505214346 77 151 1.7 7.8 0.00 0.18 0.18 30 1011.4
20260505213843 78 229 4.3 6.1 0.00 0.18 0.18 30 1011.8
20260505213342 76 303 0.9 3.5 0.00 0.18 0.18 31 1011.6
20260505212837 78 148 3.5 7.0 0.00 0.18 0.18 30 1011.7
20260505212334 78 246 3.5 11.3 0.00 0.18 0.18 32 1012.0
20260505211830 76 12 3.5 7.0 0.00 0.18 0.18 33 1011.8
20260505211328 75 211 0.0 2.6 0.00 0.18 0.18 36 1012.0
20260505210824 74 5 3.5 7.0 0.00 0.18 0.18 37 1012.1
20260505210321 74 263 7.0 7.8 0.00 0.18 0.18 41 1012.2
20260505205818 75 145 2.6 7.0 0.00 0.18 0.18 42 1012.3
20260505205317 76 273 4.3 7.8 0.00 0.18 0.18 40 1011.9
20260505204813 75 294 5.2 8.7 0.00 0.18 0.18 40 1012.2
20260505204311 77 224 2.6 5.2 0.00 0.18 0.18 41 1012.1
20260505203808 77 340 5.2 7.0 0.00 0.18 0.18 41 1012.2
20260505203305 77 208 2.6 7.8 0.00 0.18 0.18 42 1012.3
20260505202801 77 280 1.7 3.5 0.00 0.18 0.18 41 1012.3
20260505202257 77 259 3.5 8.7 0.00 0.18 0.18 38 1012.2
20260505201754 76 282 6.1 7.0 0.00 0.18 0.18 40 1012.3
20260505201251 76 334 7.0 8.7 0.00 0.18 0.18 41 1012.4
20260505200750 75 229 0.9 8.7 0.00 0.18 0.18 43 1012.5
20260505200246 75 201 0.9 5.2 0.00 0.18 0.18 43 1012.4
20260505195741 76 226 1.7 5.2 0.00 0.18 0.18 43 1012.5
20260505195239 75 209 0.9 2.6 0.00 0.18 0.18 44 1012.5
20260505194736 74 264 2.6 7.0 0.00 0.18 0.18 46 1012.5
20260505194233 75 227 2.6 6.1 0.00 0.18 0.18 47 1012.7
20260505193728 75 215 1.7 1.7 0.00 0.18 0.18 46 1012.6
20260505193226 74 317 3.5 5.2 0.00 0.18 0.18 48 1012.6
20260505192725 73 210 2.6 5.2 0.00 0.18 0.18 50 1012.6
20260505192222 73 266 4.3 7.8 0.00 0.18 0.18 50 1012.7
20260505191720 73 273 4.3 7.8 0.00 0.18 0.18 50 1012.6
20260505191218 73 201 3.5 6.1 0.00 0.18 0.18 50 1012.9
20260505190714 72 180 1.7 2.6 0.00 0.18 0.18 51 1012.9
20260505190214 72 218 1.7 2.6 0.00 0.18 0.18 52 1012.9
20260505185711 72 40 2.6 2.6 0.00 0.18 0.18 52 1013.0
20260505185207 71 215 0.9 3.5 0.00 0.18 0.18 54 1013.2
20260505184703 70 221 0.9 3.5 0.00 0.18 0.18 57 1013.4
20260505184201 69 293 1.7 5.2 0.00 0.18 0.18 57 1013.2
20260505183657 70 43 2.6 3.5 0.00 0.18 0.18 56 1013.3
20260505183155 71 331 2.6 3.5 0.00 0.18 0.18 54 1013.3
20260505182651 71 192 1.7 2.6 0.00 0.18 0.18 54 1013.5
20260505182148 71 130 3.5 3.5 0.00 0.18 0.18 56 1013.6
20260505181644 70 199 0.9 2.6 0.00 0.18 0.18 57 1013.5
20260505181142 69 189 2.6 2.6 0.00 0.18 0.18 57 1013.6
20260505180638 69 219 0.9 1.7 0.00 0.18 0.18 57 1013.6
20260505180136 70 226 0.9 0.9 0.00 0.18 0.18 57 1013.6
20260505175631 69 198 0.0 0.9 0.00 0.18 0.18 56 1013.7
20260505175128 68 190 0.9 2.6 0.00 0.18 0.18 58 1013.8
20260505174625 67 198 0.0 0.9 0.00 0.18 0.18 61 1013.8
20260505174121 68 271 1.7 3.5 0.00 0.18 0.18 61 1013.8
20260505173618 67 194 0.9 3.5 0.00 0.18 0.18 62 1014.0
20260505173115 67 199 0.0 2.6 0.00 0.18 0.18 61 1014.0
20260505172612 67 254 1.7 5.2 0.00 0.18 0.18 62 1013.9
20260505172109 68 179 1.7 5.2 0.00 0.18 0.18 61 1014.0
20260505171603 68 11 3.5 3.5 0.00 0.18 0.18 60 1013.9
20260505171101 68 244 0.9 3.5 0.00 0.18 0.18 60 1013.9
20260505170557 68 195 0.9 1.7 0.00 0.18 0.18 59 1013.9
20260505170054 68 222 0.9 1.7 0.00 0.18 0.18 60 1013.9
20260505165549 68 223 2.6 2.6 0.00 0.18 0.18 59 1013.8
20260505165045 68 269 2.6 2.6 0.00 0.18 0.18 59 1014.0
20260505164541 67 195 0.9 2.6 0.00 0.18 0.18 60 1013.9
20260505164039 68 265 1.7 2.6 0.00 0.18 0.18 60 1014.1
20260505163537 67 150 0.0 2.6 0.00 0.18 0.18 62 1013.9
20260505163033 67 238 1.7 1.7 0.00 0.18 0.18 61 1013.8
20260505162527 67 192 1.7 2.6 0.00 0.18 0.18 62 1013.9
20260505162024 66 178 0.9 0.9 0.00 0.18 0.18 65 1013.9
20260505161520 65 187 0.9 5.2 0.00 0.18 0.18 67 1013.9
20260505161017 65 222 0.9 2.6 0.00 0.18 0.18 68 1014.1
20260505160516 64 262 1.7 3.5 0.00 0.18 0.18 69 1014.0
20260505152946 64 203 0.0 0.9 0.00 0.18 0.18 75 1013.8
20260505152443 64 244 1.7 1.7 0.00 0.18 0.18 75 1013.7
20260505151938 64 201 0.9 0.9 0.00 0.18 0.18 78 1013.7
20260505151434 63 198 0.9 0.9 0.00 0.18 0.18 82 1013.7
20260505150931 62 206 0.9 0.9 0.00 0.18 0.18 84 1013.7
20260505150427 62 199 0.9 1.7 0.00 0.18 0.18 85 1013.7
20260505140352 60 226 0.0 0.0 0.00 0.18 0.18 92 1013.7